When you browse on this site, cookies collect data to enhance your experience and personalize the content and advertising you see.
Visit our Privacy Policy to learn more. By continuing to use the site, you agree to this use of cookies and data.
  • în România
  • Lista ţărilor
  • Pe 7 zile
  • Temperatura apei
  • Meteo pe hartă
  • Widget-uri
  • user-avatar
    Intrare

    Meteo pe oră la Nottingham

    Astăzi, 2 Iunie, Marţi

    Timp Temperatura Precipitaţii Vânt Presiune Umiditate
    00:00 +9°C° 0 mm 2 m/s 762 mmHg 88%
    01:00 +9°C° 0 mm 2 m/s 762 mmHg 88%
    02:00 +8°C° 0 mm 2 m/s 762 mmHg 88%
    03:00 +8°C° 0 mm 2 m/s 761 mmHg 88%
    04:00 +9°C° 0 mm 2 m/s 761 mmHg 86%
    05:00 +10°C° 0 mm 2 m/s 761 mmHg 84%
    06:00 +12°C° 0 mm 2 m/s 761 mmHg 84%
    07:00 +14°C° 0 mm 2 m/s 760 mmHg 76%
    08:00 +15°C° 0 mm 2 m/s 760 mmHg 69%
    09:00 +17°C° 0 mm 2 m/s 760 mmHg 61%
    10:00 +18°C° 0 mm 2 m/s 760 mmHg 57%
    11:00 +19°C° 0 mm 2 m/s 760 mmHg 52%
    12:00 +20°C° 0 mm 2 m/s 759 mmHg 48%
    13:00 +21°C° 0 mm 2 m/s 759 mmHg 46%
    14:00 +21°C° 0 mm 2 m/s 758 mmHg 45%
    15:00 +23°C° 0 mm 1 m/s 757 mmHg 44%
    16:00 +22°C° 0 mm 1 m/s 757 mmHg 50%
    17:00 +22°C° 0 mm 1 m/s 756 mmHg 56%
    18:00 +22°C° 0 mm 1 m/s 756 mmHg 62%
    19:00 +20°C° 0 mm 1 m/s 756 mmHg 66%
    20:00 +18°C° 0 mm 1 m/s 755 mmHg 71%
    21:00 +15°C° 0 mm 2 m/s 755 mmHg 75%
    22:00 +15°C° 0 mm 1 m/s 755 mmHg 75%
    23:00 +14°C° 0 mm 1 m/s 754 mmHg 75%

    Mâine, 3 Iunie, Miercuri

    Timp Temperatura Precipitaţii Vânt Presiune Umiditate
    00:00 +14°C° 0 mm 1 m/s 754 mmHg 75%
    01:00 +14°C° 0 mm 1 m/s 753 mmHg 75%
    02:00 +14°C° 0 mm 1 m/s 753 mmHg 74%
    03:00 +14°C° 0 mm 1 m/s 752 mmHg 74%
    04:00 +13°C° 0.1 mm 2 m/s 752 mmHg 77%
    05:00 +12°C° 0.1 mm 3 m/s 752 mmHg 81%
    06:00 +12°C° 0.1 mm 3 m/s 752 mmHg 84%
    07:00 +12°C° 0.1 mm 3 m/s 752 mmHg 85%
    08:00 +11°C° 0.1 mm 4 m/s 752 mmHg 87%
    09:00 +11°C° 0.1 mm 4 m/s 752 mmHg 89%
    10:00 +12°C° 0.1 mm 4 m/s 752 mmHg 88%
    11:00 +12°C° 0.1 mm 4 m/s 752 mmHg 87%
    12:00 +12°C° 0.1 mm 5 m/s 752 mmHg 86%
    13:00 +12°C° 0.1 mm 5 m/s 751 mmHg 87%
    14:00 +12°C° 0.1 mm 5 m/s 751 mmHg 88%
    15:00 +12°C° 0.1 mm 5 m/s 751 mmHg 88%
    16:00 +12°C° 0.1 mm 5 m/s 751 mmHg 87%
    17:00 +12°C° 0.1 mm 5 m/s 751 mmHg 86%
    18:00 +12°C° 0.1 mm 5 m/s 751 mmHg 85%
    19:00 +11°C° 0 mm 4 m/s 751 mmHg 87%
    20:00 +11°C° 0 mm 3 m/s 751 mmHg 89%
    21:00 +10°C° 0 mm 3 m/s 751 mmHg 91%
    22:00 +10°C° 0.1 mm 3 m/s 751 mmHg 92%
    23:00 +9°C° 0.1 mm 3 m/s 751 mmHg 92%

    Poimâine, 4 Iunie, Joi

    Timp Temperatura Precipitaţii Vânt Presiune Umiditate
    00:00 +8°C° 0.1 mm 4 m/s 750 mmHg 93%
    01:00 +8°C° 0.3 mm 4 m/s 750 mmHg 92%
    02:00 +8°C° 0.3 mm 4 m/s 750 mmHg 92%
    03:00 +8°C° 0.3 mm 4 m/s 750 mmHg 91%
    04:00 +8°C° 0 mm 4 m/s 749 mmHg 90%
    05:00 +8°C° 0 mm 4 m/s 749 mmHg 88%
    06:00 +8°C° 0 mm 4 m/s 749 mmHg 87%
    07:00 +10°C° 0 mm 4 m/s 749 mmHg 78%
    08:00 +11°C° 0 mm 4 m/s 749 mmHg 70%
    09:00 +12°C° 0 mm 4 m/s 748 mmHg 61%
    10:00 +12°C° 0 mm 4 m/s 748 mmHg 61%
    11:00 +13°C° 0 mm 4 m/s 748 mmHg 60%
    12:00 +13°C° 0 mm 3 m/s 748 mmHg 59%
    13:00 +13°C° 0.3 mm 3 m/s 747 mmHg 65%
    14:00 +12°C° 0.3 mm 3 m/s 747 mmHg 71%
    15:00 +12°C° 0.3 mm 2 m/s 746 mmHg 77%
    16:00 +13°C° 0.3 mm 2 m/s 746 mmHg 77%
    17:00 +13°C° 0.3 mm 1 m/s 746 mmHg 76%
    18:00 +13°C° 0.3 mm 1 m/s 746 mmHg 75%
    19:00 +12°C° 0.3 mm 1 m/s 746 mmHg 79%
    20:00 +10°C° 0.3 mm 2 m/s 746 mmHg 83%
    21:00 +9°C° 0.3 mm 2 m/s 746 mmHg 87%
    22:00 +9°C° 0.2 mm 2 m/s 745 mmHg 89%
    23:00 +9°C° 0.2 mm 2 m/s 745 mmHg 91%

    5 Iunie, Vineri

    Timp Temperatura Precipitaţii Vânt Presiune Umiditate
    00:00 +8°C° 0.2 mm 3 m/s 744 mmHg 92%
    01:00 +8°C° 0.2 mm 3 m/s 744 mmHg 93%
    02:00 +7°C° 0.2 mm 4 m/s 744 mmHg 93%
    03:00 +7°C° 0.2 mm 4 m/s 744 mmHg 93%
    04:00 +7°C° 0.1 mm 4 m/s 744 mmHg 92%
    05:00 +8°C° 0.1 mm 3 m/s 743 mmHg 92%
    06:00 +8°C° 0.1 mm 3 m/s 743 mmHg 91%
    07:00 +9°C° 0.1 mm 2 m/s 743 mmHg 87%
    08:00 +9°C° 0.1 mm 2 m/s 743 mmHg 84%
    09:00 +11°C° 0.1 mm 1 m/s 743 mmHg 80%
    10:00 +12°C° 0.4 mm 2 m/s 743 mmHg 77%
    11:00 +12°C° 0.4 mm 3 m/s 742 mmHg 74%
    12:00 +13°C° 0.4 mm 4 m/s 742 mmHg 71%
    13:00 +13°C° 0.3 mm 5 m/s 742 mmHg 66%
    14:00 +14°C° 0.3 mm 6 m/s 742 mmHg 61%
    15:00 +14°C° 0.3 mm 6 m/s 741 mmHg 55%
    16:00 +14°C° 0.1 mm 6 m/s 741 mmHg 58%
    17:00 +13°C° 0.1 mm 6 m/s 741 mmHg 61%
    18:00 +13°C° 0.1 mm 5 m/s 741 mmHg 63%
    19:00 +10°C° 0 mm 5 m/s 741 mmHg 66%
    20:00 +9°C° 0 mm 5 m/s 742 mmHg 69%
    21:00 +7°C° 0 mm 5 m/s 742 mmHg 72%
    22:00 +7°C° 0 mm 5 m/s 742 mmHg 72%
    23:00 +6°C° 0 mm 5 m/s 742 mmHg 73%

    6 Iunie, Sâmbătă

    Timp Temperatura Precipitaţii Vânt Presiune Umiditate
    00:00 +6°C° 0 mm 5 m/s 742 mmHg 73%
    01:00 +5°C° 0 mm 5 m/s 742 mmHg 74%
    02:00 +5°C° 0 mm 5 m/s 743 mmHg 76%
    03:00 +3°C° 0 mm 5 m/s 743 mmHg 77%
    04:00 +4°C° 0 mm 6 m/s 743 mmHg 76%
    05:00 +5°C° 0 mm 6 m/s 743 mmHg 74%
    06:00 +6°C° 0 mm 7 m/s 743 mmHg 73%
    07:00 +7°C° 0.1 mm 8 m/s 743 mmHg 70%
    08:00 +9°C° 0.1 mm 8 m/s 743 mmHg 67%
    09:00 +8°C° 0.1 mm 9 m/s 743 mmHg 65%
    10:00 +10°C° 0.2 mm 9 m/s 743 mmHg 64%
    11:00 +10°C° 0.2 mm 9 m/s 743 mmHg 64%
    12:00 +10°C° 0.2 mm 9 m/s 743 mmHg 64%
    13:00 +10°C° 0.2 mm 9 m/s 743 mmHg 64%
    14:00 +10°C° 0.2 mm 8 m/s 743 mmHg 64%
    15:00 +11°C° 0.2 mm 8 m/s 743 mmHg 64%
    16:00 +10°C° 0.1 mm 8 m/s 743 mmHg 65%
    17:00 +10°C° 0.1 mm 7 m/s 743 mmHg 66%
    18:00 +10°C° 0.1 mm 7 m/s 743 mmHg 67%
    19:00 +9°C° 0 mm 6 m/s 743 mmHg 67%
    20:00 +8°C° 0 mm 6 m/s 743 mmHg 66%
    21:00 +8°C° 0 mm 6 m/s 743 mmHg 65%
    22:00 +7°C° 0 mm 6 m/s 743 mmHg 67%
    23:00 +7°C° 0 mm 6 m/s 743 mmHg 69%

    7 Iunie, Duminică

    Timp Temperatura Precipitaţii Vânt Presiune Umiditate
    00:00 +7°C° 0 mm 6 m/s 743 mmHg 71%
    01:00 +7°C° 0 mm 6 m/s 742 mmHg 73%
    02:00 +5°C° 0 mm 6 m/s 742 mmHg 76%
    03:00 +5°C° 0 mm 6 m/s 742 mmHg 78%
    04:00 +5°C° 0.1 mm 7 m/s 741 mmHg 81%
    05:00 +6°C° 0.1 mm 7 m/s 741 mmHg 84%
    06:00 +6°C° 0.1 mm 7 m/s 741 mmHg 87%
    07:00 +8°C° 0.3 mm 7 m/s 741 mmHg 87%
    08:00 +9°C° 0.3 mm 6 m/s 741 mmHg 88%
    09:00 +10°C° 0.3 mm 6 m/s 741 mmHg 88%
    10:00 +10°C° 0.4 mm 6 m/s 741 mmHg 86%
    11:00 +11°C° 0.4 mm 6 m/s 741 mmHg 83%
    12:00 +13°C° 0.4 mm 6 m/s 741 mmHg 81%
    13:00 +14°C° 0.6 mm 6 m/s 741 mmHg 79%
    14:00 +14°C° 0.6 mm 6 m/s 741 mmHg 77%
    15:00 +15°C° 0.6 mm 6 m/s 741 mmHg 75%
    16:00 +14°C° 0.6 mm 6 m/s 741 mmHg 78%
    17:00 +14°C° 0.6 mm 6 m/s 742 mmHg 80%
    18:00 +13°C° 0.6 mm 6 m/s 742 mmHg 82%
    19:00 +11°C° 0.1 mm 6 m/s 742 mmHg 84%
    20:00 +10°C° 0.1 mm 6 m/s 743 mmHg 87%
    21:00 +9°C° 0.1 mm 5 m/s 743 mmHg 90%
    22:00 +9°C° 0.5 mm 5 m/s 744 mmHg 90%
    23:00 +9°C° 0.5 mm 5 m/s 744 mmHg 90%
    Arată mai mult